Regional Weather Roundup
Issued by NWS Kansas City/Pleasant Hill, MO

Home | Current Version | Previous Version | Graphics & Text | Print | Product List | Glossary Off
Versions: 1 2 3 4 5 6 7 8 9 10 11 12 13 14 15 16 17 18 19 20 21 22 23 24 25 26 27 28 29 30 31 32 33 34 35 36 37 38 39 40 41 42 43 44 45 46 47 48 49 50

363
ASUS43 KEAX 292010
RWREAX

WEATHER ROUNDUP FOR EASTERN KANSAS AND NORTHWEST MISSOURI
NATIONAL WEATHER SERVICE KANSAS CITY/PLEASANT HILL MO
300 PM CDT SAT APR 29 2017

KSZ040-057-103>105-MOZ028-029-037-043-292100-
...KANSAS CITY METROPOLITAN AREA...

CITY           SKY/WX    TMP DP  RH WIND       PRES   REMARKS
K.C. INTL      LGT RAIN  48  46  93 NE25G33   29.79F
K.C. DOWNTOWN  LGT RAIN  50  48  93 NE17      29.80F
LEES SUMMIT    LGT RAIN  49  48  97 NE25G35   29.77F
OLATHE - IXD   LGT RAIN  49  48  97 NE21G35   29.71F
OLATHE - OJC   LGT RAIN  48  48 100 NE22G33   29.74F
LAWRENCE       CLOUDY    49  48  97 E22G31    29.70F

$$

MOZ001>008-011>017-020>025-030>033-038>040-044>046-053-054-292100-
...NORTHERN AND CENTRAL MISSOURI...

CITY           SKY/WX    TMP DP  RH WIND       PRES   REMARKS
ST. JOSEPH     LGT RAIN  46  45  96 NE25G31   29.82F
MOSBY          TSTM      48  46  93 NE12G17   29.90R
WHITEMAN AFB   LGT RAIN  49  49 100 N12       29.87R
CLINTON        RAIN      50  50 100 N16       29.81R
SEDALIA        RAIN      50  50 100 N20G26    29.84R
WARSAW         NOT AVBL
CHILLICOTHE      N/A     46  44  93 NE14G31   29.95R
KIRKSVILLE     TSTM      43  30  60 NE22G31   29.94F WCI  34

$$

MOZ041-047>049-056>058-063>065-088>090-097-292100-
...EASTERN AND SOUTHERN MISSOURI...

CITY           SKY/WX    TMP DP  RH WIND       PRES   REMARKS
ST. LOUIS INTL CLOUDY    71  65  81 SE20      29.74F
SPIRIT OF STL  CLOUDY    69  67  93 E13G21    29.67F
COLUMBIA       RAIN      50  49  96 N17G25    29.84R
JEFFERSON CITY RAIN      56  51  84 N12       29.83R
ROLLA          LGT RAIN  60  32  34 W14       29.74F
OSAGE BEACH    TSTM      55  54  96 N10       29.79F
SPRINGFIELD    TSTM      60  59  96 NE15      29.70S FOG
BRANSON        TSTM      63  63 100 NW6       29.73F VSB 3/4
JOPLIN         TSTM      54  53  97 NE14      29.72F
WEST PLAINS    CLOUDY    77  68  73 S15       29.76F

$$

IAZ060-094-KSZ022-034>040-054-083-096-NEZ052-066-093-292100-
...KANSAS...SOUTHEAST NEBRASKA AND IOWA...

CITY           SKY/WX    TMP DP  RH WIND       PRES   REMARKS
TOPEKA         CLOUDY    49  48  97 NE25G32   29.68F
MANHATTAN      CLOUDY    48  47  96 NE17G23   29.82R
EMPORIA        LGT RAIN  49  49 100 NW9       29.72R
CHANUTE        LGT RAIN  55  52  89 E14G24    29.69R
WICHITA        CLOUDY    47  46  97 N16G28    29.74F FOG
OMAHA          CLOUDY    46  38  73 NE23G39   30.00F
LINCOLN        CLOUDY    45  38  76 NE28G37   29.96F
FALLS CITY     CLOUDY    45  43  93 NE26G47   29.75F
LAMONI         LGT RAIN  43  41  93 NE20G30   30.00S WCI  34
DES MOINES     LGT RAIN  44  40  85 NE20G30   30.09S

$$





USA.gov is the U.S. government's official web portal to all federal, state and local government web resources and services.